Volver al catálogo

OPS 4682 DEB

ActivoPO
NORAD 38416·DEBRIS·🇺🇸 United States

Lanzado Apr 3, 1965 desde Vandenberg Space Force Base

Loading…

Próximos Pases (próximas 24 horas)

TLE

ActualizadoSource: Space-Track

Época: Sep 14, 2026, 13:17 UTC

1 38416U 65027DV  26257.55372522  .00000313  00000-0  10773-2 0  9992
2 38416  90.2531  11.6658 0031154 261.8692  97.8893 12.95877436646292

Sigue OPS 4682 DEB en tiempo real con AllMySat

Download on the App Store